Regional Weather Roundup
Issued by NWS Northern Indiana

Home | Current Version | Previous Version | Graphics & Text | Print | Product List | Glossary On
Versions: 1 2 3 4 5 6 7 8 9 10 11 12 13 14 15 16 17 18 19 20 21 22 23 24 25 26 27 28 29 30 31 32 33 34 35 36 37 38 39 40 41 42 43 44 45 46 47 48 49 50
000
ASUS43 KIWX 060510
RWRIWX

KIWX WEATHER ROUNDUP
NATIONAL WEATHER SERVICE NORTHERN INDIANA
100 AM EDT FRI MAY 06 2016

NOTE: "FAIR" INDICATES FEW OR NO CLOUDS BELOW 12,000 FEET WITH NO
SIGNIFICANT WEATHER AND/OR OBSTRUCTIONS TO VISIBILITY.

* THESE STATIONS ARE NOT UNDER NWS QUALITY CONTROL. THEY ALSO MAY NOT
  REPORT WEATHER SUCH AS PRECIPITATION OR FOG.

INZ001>027-060600-
NORTHERN INDIANA

CITY           SKY/WX    TMP DP  RH WIND       PRES   REMARKS
GARY*            N/A     42  42 100 CALM      30.00S FOG
VALPARAISO     CLEAR     43  38  82 CALM      29.99S
MICHIGAN CITY* CLEAR     37  37 100 CALM      29.99S FOG
LAPORTE*       CLEAR     43  41  93 CALM      29.99S
KNOX*          PTCLDY    39  37  93 W3        29.98S
SOUTH BEND     CLEAR     40  37  89 NW5       29.98S
GOSHEN         CLEAR     44  38  79 NW5       29.96S
MONTICELLO*    CLEAR     45  39  79 W3        29.97S
LOGANSPORT*    CLEAR     45  41  87 N5        29.98S
ROCHESTER*     CLEAR     46  43  87 NW3       29.97S
WARSAW*        CLEAR     45  37  76 CALM      29.96S
ANGOLA*          N/A     48  43  81 W3        29.94S
FORT WAYNE     PTCLDY    49  41  74 NW6       29.95S
HUNTINGTON*    CLEAR     47  41  78 N3        29.95S
PERU/GRISSOM   CLEAR     48  42  80 NW6       29.95S
MARION*        CLEAR     49  41  75 N3        29.96S

$$
INZ028>050-060600-
CENTRAL INDIANA

CITY           SKY/WX    TMP DP  RH WIND       PRES   REMARKS
LAFAYETTE      CLEAR     43  41  93 CALM      29.98S
KOKOMO*        CLEAR     46  39  76 NW3       29.96S
MUNCIE*        CLEAR     50  42  74 N7        29.95R
INDIANAPOLIS   PTCLDY    50  41  71 N7        29.95S

$$
MIZ043>046-050>051-056>058-064>065-071>073-077>080-060600-
SOUTHWEST LOWER MICHIGAN

CITY           SKY/WX    TMP DP  RH WIND       PRES   REMARKS
BATTLE CREEK   CLEAR     46  38  73 W7        29.95S
BENTON HARBOR  CLEAR     40  37  89 CALM      29.98S
COLDWATER*     CLEAR     46  40  80 W5        29.94S
HILLSDALE*     CLEAR     50  38  63 NW3       29.93S
HOLLAND        CLEAR    N/A N/A N/A W3        29.96S
GRAND RAPIDS   CLEAR     51  38  60 NW3       29.95R
KALAMAZOO      CLEAR     47  34  60 N3        29.95S
STURGIS*       CLEAR     46  37  68 CALM      29.94S
THREE RIVERS*  FAIR      44  37  74 NW6       29.96R

$$
OHZ001>008-015>018-024>025-060600-
NORTHWEST OHIO

CITY           SKY/WX    TMP DP  RH WIND       PRES   REMARKS
WAUSEON*         N/A     54 N/A N/A NW6       29.92R
DEFIANCE       PTCLDY    55  43  63 NW10      29.92S
FINDLAY        CLEAR     51  37  58 NW5       29.89S
TOLEDO EXPRESS CLEAR     50  39  66 NW5       29.90S
TOLEDO METCALF CLEAR     51  36  56 N3        29.91R
LIMA           CLEAR     49  41  74 CALM      29.90S

$$
AND FOR LAKE MICHIGAN COASTAL AND OPEN LAKE BUOY OBSERVATIONS

STATION/POSITION TEMP    WIND        PRES    VSBY  WAVE
                 AIR SEA DIR/SP/G                  HT/PER
                 (F)     (DEG/KT/KT) (MB)    (MI)  (FT/S)
CALUMET HARBOR    45     340/  1/  2 1015.1S
MICHIGAN CITY     45     270/  4/  5   N/A
BURNS HARBOR      46     310/  2/  4 1016.3S
SAINT JOSEPH      45     250/  4/  4 1016.3R
SOUTH LAKE BUOY   41 40  240/  4/  6 1015.2F         1/ 5
4 MI NW BRIDGMAN  45 47                N/A           2/ 5

$$
&&



USA.gov is the U.S. government's official web portal to all federal, state and local government web resources and services.